User: anonymous   Login
Location: Unspecified
(0.0000°N, 0.0000°E)
Time: 07:39:14
(UTC+00:00)
Language:

MUOS - Orbit

View from above orbital plane
View from above orbital plane
View from above satellite
View from above satellite

Ground track
Ground track

The orbit data is extracted from the following two-line orbital elements,

1 38093U 12009A   17051.01268193 0.00000000  00000-0  00000-0 0    02
2 38093   3.3193 337.7245 0059991 183.9677 175.9977  1.00270000    04
Epoch (UTC): 20 February 2017 00:18:15
Eccentricity: 0.0059991
inclination: 3.3193°
perigee height: 35534 km
apogee height: 36039 km
right ascension of ascending node: 337.7245°
argument of perigee: 183.9677°
revolutions per day: 1.00270000
mean anomaly at epoch: 175.9977°
orbit number at epoch: 0

The dashed part of the orbit path shows where the satellite is in the earth's shadow,  

DLR